�N����,����,�~����,�C��,���x,�C��,����,���ϕ���,�ő�u�ԕ���,�ő厞����,���˗�,�I�_���x,�n�����x,�ő啗���N��,DTYPE
"20/10/24","00:10",0.0,12.8,81.7,1003.6,324.8,1.3,2.1,335.6,0.00,9.8,16.6,"00:01:36",1
"20/10/24","00:20",0.0,12.3,82.8,1003.6,331.0,1.0,2.5,316.8,0.00,9.5,16.7,"00:18:02",1
"20/10/24","00:30",0.0,11.8,84.1,1003.4,299.6,1.2,2.4,316.9,0.00,9.2,16.7,"00:21:12",1
"20/10/24","00:40",0.0,11.6,85.0,1003.8,296.9,1.2,2.8,325.6,0.00,9.2,16.3,"00:34:06",1
"20/10/24","00:50",0.0,11.5,86.1,1003.6,309.1,1.1,2.5,336.4,0.00,9.3,16.6,"00:46:08",1
"20/10/24","01:00",0.0,11.1,86.8,1003.6,312.1,1.0,1.7,343.8,0.00,9.0,16.6,"00:53:28",1
"20/10/24","01:10",0.0,10.8,87.5,1003.8,303.6,1.0,2.1,305.7,0.00,8.8,16.4,"01:04:56",1
"20/10/24","01:20",0.0,10.8,88.4,1003.6,314.1,1.7,2.5,317.7,0.00,9.0,16.3,"01:12:40",1
"20/10/24","01:30",0.0,10.8,89.1,1003.4,318.8,1.2,1.9,336.8,0.00,9.1,16.3,"01:24:56",1
"20/10/24","01:40",0.0,10.8,89.5,1003.8,305.4,1.1,1.8,313.4,0.00,9.2,16.4,"01:39:40",1
"20/10/24","01:50",0.0,10.8,90.2,1003.8,322.3,1.7,3.1,316.7,0.00,9.3,16.3,"01:43:04",1
"20/10/24","02:00",0.0,10.9,90.7,1003.6,311.7,1.5,2.4,323.2,0.00,9.5,16.2,"01:57:12",1
"20/10/24","02:10",0.0,11.5,91.1,1003.6,316.4,2.0,3.2,329.7,0.00,10.1,16.1,"02:09:30",1
"20/10/24","02:20",0.0,11.9,91.1,1004.1,321.0,2.6,4.7,335.1,0.00,10.5,16.2,"02:18:44",1
"20/10/24","02:30",0.0,12.1,90.8,1004.1,321.6,2.6,4.0,339.3,0.00,10.7,16.0,"02:21:16",1
"20/10/24","02:40",0.0,12.2,90.7,1003.8,329.5,2.7,4.0,332.0,0.00,10.8,16.2,"02:36:36",1
"20/10/24","02:50",0.0,12.2,90.5,1003.8,325.3,2.6,3.9,336.9,0.00,10.7,16.2,"02:40:32",1
"20/10/24","03:00",0.0,12.2,90.4,1004.5,328.6,2.8,4.0,302.4,0.00,10.7,15.9,"02:50:32",1
"20/10/24","03:10",0.0,12.1,90.3,1004.5,321.0,2.2,3.6,309.8,0.00,10.6,16.1,"03:02:40",1
"20/10/24","03:20",0.0,12.1,90.3,1004.5,323.6,2.2,4.0,325.7,0.00,10.6,16.0,"03:12:26",1
"20/10/24","03:30",0.0,12.0,90.2,1004.8,325.8,2.0,2.9,324.0,0.00,10.5,16.0,"03:20:16",1
"20/10/24","03:40",0.0,12.0,90.2,1004.5,321.8,2.2,4.0,345.3,0.00,10.5,16.0,"03:37:56",1
"20/10/24","03:50",0.0,11.9,90.2,1005.0,303.8,1.6,2.7,336.3,0.00,10.4,16.0,"03:42:16",1
"20/10/24","04:00",0.0,11.7,90.2,1004.8,306.4,1.5,2.6,336.6,0.00,10.2,15.9,"03:53:16",1
"20/10/24","04:10",0.0,11.7,90.3,1004.8,325.1,2.0,2.6,342.3,0.00,10.2,15.8,"04:04:38",1
"20/10/24","04:20",0.0,11.7,90.4,1005.0,326.9,2.1,3.4,344.7,0.00,10.2,15.8,"04:17:06",1
"20/10/24","04:30",0.0,11.7,90.5,1005.2,326.0,2.5,4.8,333.0,0.00,10.2,15.9,"04:24:50",1
"20/10/24","04:40",0.0,11.8,90.5,1005.5,321.0,2.3,4.4,335.6,0.00,10.3,16.0,"04:31:04",1
"20/10/24","04:50",0.0,11.7,90.5,1005.5,322.4,2.5,4.2,330.6,0.00,10.2,15.9,"04:43:12",1
"20/10/24","05:00",0.0,11.5,90.7,1005.5,319.1,2.2,3.3,329.8,0.00,10.1,15.9,"04:58:18",1
"20/10/24","05:10",0.0,11.5,90.7,1006.0,309.4,1.7,3.1,350.5,0.00,10.1,16.0,"05:09:36",1
"20/10/24","05:20",0.0,11.6,90.8,1005.7,315.2,2.1,3.3,321.1,0.00,10.2,15.9,"05:16:34",1
"20/10/24","05:30",0.0,11.5,90.8,1006.2,308.1,1.7,3.3,332.6,0.00,10.1,15.9,"05:29:38",1
"20/10/24","05:40",0.0,11.3,90.9,1006.0,326.7,1.5,2.6,336.7,0.00,9.9,16.0,"05:30:24",1
"20/10/24","05:50",0.0,11.3,91.1,1006.2,324.7,1.8,3.5,345.8,0.00,9.9,15.7,"05:49:20",1
"20/10/24","06:00",0.0,11.4,91.1,1006.0,298.4,1.5,2.6,335.6,0.00,10.0,15.9,"05:58:58",1
"20/10/24","06:10",0.0,11.2,91.2,1005.7,316.9,1.3,2.1,334.9,0.00,9.9,15.7,"06:06:00",1
"20/10/24","06:20",0.0,11.0,91.4,1006.2,323.9,1.3,2.1,334.7,0.00,9.7,15.7,"06:14:00",1
"20/10/24","06:30",0.0,10.8,91.6,1006.2,329.3,1.3,2.0,334.9,0.00,9.5,15.7,"06:20:02",1
"20/10/24","06:40",0.0,11.1,91.8,1006.0,340.2,1.5,2.2,336.0,0.00,9.9,15.7,"06:30:48",1
"20/10/24","06:50",0.0,11.2,92.1,1006.4,330.1,1.6,3.2,348.4,0.00,10.0,15.6,"06:48:32",1
"20/10/24","07:00",0.0,11.9,92.1,1006.4,329.1,1.3,2.6,313.8,0.01,10.7,15.5,"06:55:04",1
"20/10/24","07:10",0.0,12.5,92.0,1006.9,330.3,1.3,2.6,338.4,0.02,11.3,15.9,"07:08:24",1
"20/10/24","07:20",0.0,13.3,91.6,1006.7,319.6,1.8,2.7,331.2,0.06,12.0,15.8,"07:12:16",1
"20/10/24","07:30",0.0,13.6,90.4,1007.1,306.4,1.7,2.9,342.2,0.04,12.1,16.0,"07:27:12",1
"20/10/24","07:40",0.0,13.6,89.7,1007.4,299.1,1.5,2.7,304.0,0.04,12.0,15.8,"07:36:48",1
"20/10/24","07:50",0.0,14.0,88.5,1007.4,303.2,1.7,2.9,317.7,0.08,12.2,16.0,"07:48:08",1
"20/10/24","08:00",0.0,13.7,87.3,1007.6,311.0,1.7,2.7,324.5,0.03,11.7,16.0,"07:56:48",1
"20/10/24","08:10",0.0,14.0,87.1,1007.1,280.2,1.5,2.7,325.0,0.10,11.9,16.1,"08:02:56",1
"20/10/24","08:20",0.0,14.8,85.4,1007.4,266.0,1.6,3.7,320.6,0.17,12.4,16.1,"08:18:00",1
"20/10/24","08:30",0.0,15.4,82.8,1007.4,262.6,1.6,3.5,226.5,0.19,12.5,16.2,"08:27:20",1
"20/10/24","08:40",0.0,16.0,80.0,1007.4,272.8,1.2,2.5,238.0,0.22,12.6,16.3,"08:31:28",1
"20/10/24","08:50",0.0,15.9,76.2,1007.4,272.6,1.7,3.3,342.1,0.16,11.8,16.5,"08:42:00",1
"20/10/24","09:00",0.0,16.3,74.4,1007.6,285.4,1.2,2.5,269.1,0.25,11.8,16.3,"08:55:52",1
"20/10/24","09:10",0.0,16.3,72.4,1007.4,254.3,1.7,4.3,232.6,0.22,11.4,16.5,"09:02:48",1
"20/10/24","09:20",0.0,16.4,70.1,1007.1,282.6,1.6,3.5,237.4,0.17,11.0,16.8,"09:19:12",1
"20/10/24","09:30",0.0,17.0,70.0,1006.9,264.9,1.8,4.5,238.2,0.35,11.5,16.8,"09:25:52",1
"20/10/24","09:40",0.0,17.4,68.6,1006.9,273.7,2.0,5.2,230.2,0.37,11.6,17.0,"09:32:56",1
"20/10/24","09:50",0.0,17.8,66.2,1006.9,269.3,1.5,3.2,253.6,0.37,11.5,17.3,"09:46:40",1
"20/10/24","10:00",0.0,16.8,66.4,1006.9,262.4,1.3,3.9,229.4,0.08,10.5,17.2,"09:59:52",1
"20/10/24","10:10",0.0,17.0,67.7,1006.2,270.4,1.3,3.9,341.9,0.28,11.0,17.2,"10:09:36",1
"20/10/24","10:20",0.0,17.7,66.5,1006.4,247.9,1.7,5.9,231.3,0.43,11.4,17.5,"10:18:00",1
"20/10/24","10:30",0.0,18.5,65.6,1006.0,295.8,1.8,5.4,345.9,0.45,12.0,17.4,"10:22:40",1
"20/10/24","10:40",0.0,18.8,64.0,1006.2,266.5,1.3,4.0,220.1,0.48,11.9,17.8,"10:39:44",1
"20/10/24","10:50",0.0,18.6,62.5,1006.2,276.2,1.8,4.2,234.3,0.44,11.3,17.8,"10:41:28",1
"20/10/24","11:00",0.0,18.2,61.4,1005.7,248.2,2.6,6.6,227.4,0.42,10.7,18.1,"10:57:28",1
"20/10/24","11:10",0.0,19.2,60.3,1005.5,232.5,1.8,3.6,204.0,0.53,11.4,18.3,"11:03:28",1
"20/10/24","11:20",0.0,19.1,57.2,1005.5,281.7,2.2,5.9,237.6,0.46,10.5,18.5,"11:17:52",1
"20/10/24","11:30",0.0,18.6,54.7,1005.5,260.7,2.3,5.1,226.8,0.32,9.4,18.7,"11:23:52",1
"20/10/24","11:40",0.0,19.1,53.9,1005.0,264.4,2.3,5.2,213.8,0.48,9.6,18.8,"11:32:16",1
"20/10/24","11:50",0.0,19.1,50.6,1005.5,253.2,3.0,5.9,227.9,0.52,8.7,18.8,"11:44:08",1
"20/10/24","12:00",0.0,19.1,49.8,1005.0,266.6,2.6,6.2,224.4,0.51,8.4,18.9,"11:50:08",1
"20/10/24","12:10",0.0,19.3,47.3,1004.5,278.9,2.3,6.4,328.8,0.51,7.9,19.0,"12:09:28",1
"20/10/24","12:20",0.0,19.4,47.0,1004.8,296.6,2.6,6.3,342.1,0.50,7.8,19.2,"12:12:00",1
"20/10/24","12:30",0.0,19.3,46.8,1004.5,273.2,2.6,9.8,218.0,0.49,7.7,19.3,"12:23:36",1
"20/10/24","12:40",0.0,19.5,45.5,1004.8,281.9,2.3,4.5,345.5,0.49,7.5,19.5,"12:30:16",1
"20/10/24","12:50",0.0,19.4,45.4,1004.8,287.1,2.2,4.9,332.7,0.48,7.3,19.4,"12:46:16",1
"20/10/24","13:00",0.0,19.7,45.3,1004.1,270.2,2.0,5.8,216.3,0.47,7.6,19.4,"12:52:16",1
"20/10/24","13:10",0.0,19.8,45.4,1004.3,251.1,2.2,4.1,250.0,0.46,7.7,19.7,"13:05:28",1
"20/10/24","13:20",0.0,20.1,46.6,1004.3,262.6,2.1,6.5,232.0,0.45,8.4,19.7,"13:14:24",1
"20/10/24","13:30",0.0,20.1,45.9,1004.1,273.8,1.7,4.8,243.0,0.44,8.1,19.7,"13:20:16",1
"20/10/24","13:40",0.0,20.0,45.2,1004.1,263.0,2.0,6.3,201.9,0.41,7.8,19.9,"13:38:48",1
"20/10/24","13:50",0.0,20.0,44.2,1003.8,284.7,2.0,3.9,333.2,0.39,7.5,20.0,"13:48:32",1
"20/10/24","14:00",0.0,19.8,44.5,1003.6,250.6,2.2,4.4,231.0,0.38,7.4,19.9,"13:55:20",1
"20/10/24","14:10",0.0,20.0,44.7,1004.1,269.1,2.0,4.1,246.5,0.36,7.7,20.1,"14:02:08",1
"20/10/24","14:20",0.0,20.0,44.7,1003.8,260.6,1.8,6.6,235.9,0.34,7.7,20.1,"14:15:28",1
"20/10/24","14:30",0.0,20.4,44.7,1004.1,281.9,1.6,6.0,321.0,0.33,8.0,20.1,"14:22:56",1
"20/10/24","14:40",0.0,20.3,43.2,1004.3,282.4,1.7,3.3,306.7,0.31,7.4,20.4,"14:32:16",1
"20/10/24","14:50",0.0,20.4,46.1,1004.5,274.3,1.6,3.7,252.7,0.30,8.5,20.1,"14:41:44",1
"20/10/24","15:00",0.0,19.8,46.8,1004.1,256.7,2.1,6.4,234.8,0.25,8.2,20.0,"14:55:20",1
"20/10/24","15:10",0.0,18.7,49.3,1004.3,255.5,1.7,4.7,208.6,0.08,7.9,20.1,"15:07:36",1
"20/10/24","15:20",0.0,18.0,50.4,1004.5,277.6,1.6,4.9,223.1,0.05,7.6,20.0,"15:17:52",1
"20/10/24","15:30",0.0,18.0,52.2,1004.3,295.6,1.6,2.9,311.0,0.07,8.1,19.8,"15:28:16",1
"20/10/24","15:40",0.0,18.3,51.7,1004.5,279.1,1.6,2.8,327.0,0.10,8.2,19.6,"15:36:24",1
"20/10/24","15:50",0.0,18.5,50.4,1004.8,289.4,1.7,4.3,342.0,0.12,8.0,19.7,"15:46:40",1
"20/10/24","16:00",0.0,18.5,50.0,1004.8,283.3,1.5,3.5,340.2,0.09,7.9,19.5,"15:56:32",1
"20/10/24","16:10",0.0,18.1,50.6,1005.0,255.6,1.6,6.3,215.3,0.05,7.7,19.6,"16:08:32",1
"20/10/24","16:20",0.0,17.9,51.2,1005.2,287.1,1.2,4.0,206.7,0.02,7.7,19.5,"16:11:04",1
"20/10/24","16:30",0.0,17.7,52.1,1005.0,316.0,1.2,2.5,346.3,0.01,7.8,19.4,"16:29:52",1
"20/10/24","16:40",0.0,17.4,53.1,1005.2,297.9,1.1,2.5,317.3,0.01,7.8,19.3,"16:35:44",1
"20/10/24","16:50",0.0,17.2,53.4,1005.5,286.3,1.1,1.9,283.1,0.00,7.7,19.1,"16:44:48",1
"20/10/24","17:00",0.0,17.0,60.3,1005.5,334.1,1.5,2.4,340.9,0.00,9.3,19.2,"16:51:04",1
"20/10/24","17:10",0.0,16.3,63.6,1005.7,316.8,1.5,2.7,331.1,0.00,9.4,18.9,"17:07:20",1
"20/10/24","17:20",0.0,15.9,66.0,1006.0,317.0,1.6,2.8,324.6,0.00,9.6,18.9,"17:17:28",1
"20/10/24","17:30",0.0,15.4,67.5,1006.0,318.4,1.8,4.9,339.6,0.00,9.5,18.8,"17:28:56",1
"20/10/24","17:40",0.0,15.1,68.4,1006.2,310.1,1.8,3.5,342.5,0.00,9.4,18.7,"17:30:24",1
"20/10/24","17:50",0.0,14.8,69.7,1006.0,292.4,1.2,2.8,328.7,0.00,9.4,18.5,"17:46:48",1
"20/10/24","18:00",0.0,14.5,70.8,1006.9,291.6,1.2,2.6,318.7,0.00,9.3,18.6,"17:59:28",1
"20/10/24","18:10",0.0,14.3,71.7,1006.4,308.0,1.6,2.9,337.0,0.00,9.3,18.5,"18:04:00",1
"20/10/24","18:20",0.0,13.9,73.0,1006.9,324.3,1.6,2.1,342.1,0.00,9.2,18.4,"18:11:46",1
"20/10/24","18:30",0.0,13.6,74.3,1006.9,320.5,1.6,2.8,334.8,0.00,9.2,18.3,"18:27:24",1
"20/10/24","18:40",0.0,13.1,75.7,1007.1,308.9,1.5,2.4,334.4,0.00,9.0,18.1,"18:31:58",1
"20/10/24","18:50",0.0,12.8,76.8,1007.1,301.3,1.3,2.1,320.0,0.00,8.9,18.1,"18:40:58",1
"20/10/24","19:00",0.0,12.6,77.8,1007.1,286.1,1.2,1.8,317.1,0.00,8.9,17.9,"18:52:50",1
"20/10/24","19:10",0.0,12.3,78.6,1007.4,285.0,1.2,1.8,303.3,0.00,8.7,17.7,"19:09:44",1
"20/10/24","19:20",0.0,12.1,79.1,1007.4,299.2,1.5,2.5,322.6,0.00,8.6,17.8,"19:17:38",1
"20/10/24","19:30",0.0,12.1,77.9,1008.1,295.4,1.8,5.0,315.4,0.00,8.4,17.6,"19:29:40",1
"20/10/24","19:40",0.0,13.0,73.4,1007.8,298.3,1.8,3.6,302.0,0.00,8.4,17.5,"19:30:10",1
"20/10/24","19:50",0.0,13.3,68.1,1008.3,303.2,1.5,4.3,316.5,0.00,7.6,17.5,"19:46:16",1
"20/10/24","20:00",0.0,13.3,64.6,1008.6,280.4,1.5,2.4,290.9,0.00,6.8,17.3,"19:51:06",1
"20/10/24","20:10",0.0,13.3,63.9,1008.6,276.1,1.3,2.2,329.3,0.00,6.7,17.3,"20:01:04",1
"20/10/24","20:20",0.0,13.0,63.1,1009.0,298.8,1.6,4.1,329.1,0.00,6.2,17.2,"20:19:30",1
"20/10/24","20:30",0.0,13.2,60.8,1008.8,303.6,1.2,2.9,304.7,0.00,5.8,17.1,"20:28:10",1
"20/10/24","20:40",0.0,13.5,59.3,1008.8,317.4,1.8,3.6,312.9,0.00,5.8,16.8,"20:37:28",1
"20/10/24","20:50",0.0,13.2,60.0,1009.0,303.8,1.5,4.0,335.7,0.00,5.7,16.9,"20:40:44",1
"20/10/24","21:00",0.0,13.1,60.6,1009.7,317.4,1.3,3.7,333.6,0.00,5.7,17.0,"20:52:38",1
"20/10/24","21:10",0.0,12.9,62.0,1009.5,333.6,1.0,2.5,307.6,0.00,5.8,17.0,"21:01:16",1
"20/10/24","21:20",0.0,12.8,62.8,1009.5,324.2,1.2,2.8,324.0,0.00,5.9,16.7,"21:14:56",1
"20/10/24","21:30",0.0,12.6,63.4,1009.5,295.6,1.5,3.2,14.0,0.00,5.9,16.8,"21:26:18",1
"20/10/24","21:40",0.0,13.0,61.7,1009.5,319.2,2.0,4.4,336.4,0.00,5.9,16.9,"21:34:16",1
"20/10/24","21:50",0.0,12.9,61.3,1009.5,300.4,1.3,2.9,331.9,0.00,5.7,16.7,"21:41:02",1
"20/10/24","22:00",0.0,12.4,62.5,1010.0,288.3,1.2,1.7,306.6,0.00,5.5,16.5,"21:53:40",1
"20/10/24","22:10",0.0,12.0,64.4,1010.0,299.8,1.5,2.0,325.7,0.00,5.5,16.2,"22:03:16",1
"20/10/24","22:20",0.0,11.9,65.7,1010.0,282.7,1.7,3.9,255.9,0.00,5.7,16.4,"22:19:32",1
"20/10/24","22:30",0.0,11.9,65.9,1010.0,280.8,1.5,2.9,318.4,0.00,5.8,16.3,"22:20:10",1
"20/10/24","22:40",0.0,11.6,66.5,1009.7,306.5,1.5,2.0,327.6,0.00,5.6,16.2,"22:39:56",1
"20/10/24","22:50",0.0,11.1,67.8,1009.7,293.2,1.3,2.4,326.3,0.00,5.4,16.2,"22:40:24",1
"20/10/24","23:00",0.0,10.5,69.2,1009.5,280.7,1.2,1.8,318.1,0.00,5.1,16.1,"22:58:00",1
"20/10/24","23:10",0.0,10.3,70.9,1009.5,302.5,1.3,3.1,339.3,0.00,5.3,16.1,"23:09:12",1
"20/10/24","23:20",0.0,9.8,71.7,1009.7,286.8,1.0,1.6,298.9,0.00,5.0,16.0,"23:10:32",1
"20/10/24","23:30",0.0,9.6,73.0,1009.5,315.6,1.5,1.9,323.0,0.00,5.0,15.8,"23:25:36",1
"20/10/24","23:40",0.0,9.5,74.1,1009.7,299.5,1.5,2.8,326.7,0.00,5.2,15.9,"23:30:48",1
"20/10/24","23:50",0.0,9.2,75.0,1009.7,303.1,1.2,1.8,313.4,0.00,5.0,15.8,"23:49:20",1
"20/10/24","24:00",0.0,9.5,76.7,1009.7,327.7,1.8,3.1,336.1,0.00,5.7,15.6,"23:54:56",1
